Miscellaneous Local Product
Issued by NWS Hastings, NE

Current Version | Previous Version | Text Only | Print | Product List | Glossary On
Versions: 1 2 3 4 5 6 7 8 9 10 11 12 13 14 15 16 17 18 19 20 21 22 23 24 25 26 27 28 29 30 31 32 33 34 35 36 37 38 39 40 41 42 43 44 45 46 47 48 49 50
000
AXUS43 KGID 261402
MISGRI

GID CWA HOURLY WEATHER ROUNDUP
NATIONAL WEATHER SERVICE HASTINGS NE
900 AM CDT SAT JUL 26 2014

NOTE: "FAIR" INDICATES FEW OR NO CLOUDS BELOW 12,000 FEET WITH NO
SIGNIFICANT WEATHER AND/OR OBSTRUCTIONS TO VISIBILITY.

...SOUTH CENTRAL NEBRASKA...

CITY           SKY/WX    TMP DP  RH WIND       PRES   REMARKS
GRAND ISLAND   CLOUDY    77  74  90 SE8       29.87R FOG
HASTINGS       CLOUDY    76  72  87 NE10      29.86F FOG
KEARNEY        SUNNY     79  72  78 NE7       29.88F
ORD            CLOUDY    75  74  96 SE8       29.85F FOG
YORK           MOSUNNY   77  77 100 SE7       29.85F FOG
AURORA         CLOUDY    77  77 100 SE7       29.86R FOG
LEXINGTON      SUNNY     77  71  79 SE5       29.89R
HOLDREGE       SUNNY     77  70  80 E8        29.90R
HEBRON         CLOUDY    79  74  84 E7        29.83R HAZE

...NEBRASKA PANHANDLE...

CITY           SKY/WX    TMP DP  RH WIND       PRES   REMARKS
CHADRON        MOSUNNY   73  52  47 CALM      30.04R
ALLIANCE       MOSUNNY   69  54  58 W9        30.03R
SCOTTSBLUFF    MOSUNNY   70  55  59 NW12      30.06R
SIDNEY         SUNNY     73  51  46 NW14      30.08R

...WESTERN AND NORTH CENTRAL NEBRASKA...

CITY           SKY/WX    TMP DP  RH WIND       PRES   REMARKS
VALENTINE      SUNNY     76  67  73 W10       29.87R
AINSWORTH      SUNNY     76  69  79 S8        29.86S
ONEILL         SUNNY     79  71  76 SE7       29.85F
BROKEN BOW     SUNNY     77  71  82 SE3       29.87S
IMPERIAL       SUNNY     76  58  53 NW14      29.96R
NORTH PLATTE   SUNNY     76  66  71 W7        29.91R
MCCOOK         SUNNY     75  66  73 S8        29.91R

...EASTERN NEBRASKA...

CITY           SKY/WX    TMP DP  RH WIND       PRES   REMARKS
NORFOLK        MOSUNNY   77  72  84 SE3       29.86S
SO SIOUX CITY  PTSUNNY   77  71  82 NE3       29.85F
COLUMBUS       MOSUNNY   81  73  78 NE8       29.85F
ALBION         MOSUNNY   78  73  84 E5        29.85F HAZE
OMAHA EPPLEY   PTSUNNY   75  70  84 N6        29.83R
OFFUTT AFB     PTSUNNY   75  75 100 VRB6      29.82R
MILLARD        PTSUNNY   77  72  86 E3        29.81S
LINCOLN        PTSUNNY   79  72  79 CALM      29.84R
NEBRASKA CITY  PTSUNNY   75  75 100 NE5       29.82R
BEATRICE       PTSUNNY   76  75  96 NE5       29.82F
FALLS CITY     CLOUDY    78  73  84 SE5       29.79S

...NORTHERN KANSAS...

CITY           SKY/WX    TMP DP  RH WIND       PRES   REMARKS
GOODLAND       SUNNY     76  64  66 W9        30.00R
HILL CITY      SUNNY     80  66  62 NW7       29.91R
NORTON         SUNNY     75  63  64 CALM      29.91R
PHILLIPSBURG   SUNNY     79  66  65 NW3       29.89R
SMITH CENTER   SUNNY     82  70  65 S3        29.88F
HAYS           MOSUNNY   77  68  73 N12       29.88R
RUSSELL        PTSUNNY   83  65  54 NW5       29.86R
CONCORDIA      CLOUDY    80  74  81 CALM      29.82S
SALINA         CLOUDY    80  61  52 SE7       29.84R
TOPEKA         CLOUDY    83  69  62 SW3       29.83R



USA.gov is the U.S. government's official web portal to all federal, state and local government web resources and services.